Starlink 30956

operational
NORAD ID: 58481 Int'l Des: 2023-186 Owner: SPXS Country: US Constellation: starlink
LEOCIRCULAR

About Starlink 30956

Description loading...

Live Position

Loading 3D Globe...

Upcoming Passes

Altitude History

Altitude vs Time

uPlot chart will show altitude changes over time

Two-Line Element Set

1 58481U 23186J 25305.51553350 .00002951 00000-0 23342-3 0 9992
2 58481 43.0036 19.2451 0001083 284.9271 75.1451 15.02533996106857
Epoch: Nov 1, 2025 • Age: 16 hours

Current Status

Altitude 560.7 km
Velocity 7.58 km/s
Sub-Earth Point -11.66°S, 102.54°W
Launch Date Dec 3, 2023
Age 1.9 years
Type internet

Technical Details

Classification Payload
Mass 730.00 kg
Dry Mass 700.00 kg
Total Mass 730.00 kg
Length 0.30 m
Diameter 4.10 m
Span 29.00 m
Shape Box + pan
Manufacturer SPXS
Bus Type Starlink V2M
Phase Status In Orbit
Owner/State SPXS/US

Large Constellations

Loading constellations...